Location: Brno
(49.2000°N, 16.6330°E)
Time: 00:08:00
(UTC+02:00)

Transit 4A - Pass Details

Date: 03 August 2021
Orbit: 870 x 974 km, 66.8° (Epoch: 26 September)

Event Time Altitude Azimuth Distance (km) Brightness Sun altitude
Rises 06:14:59 0° 320° (NW) 3,468 10.7 6.1°
Reaches altitude 10° 06:18:16 10° 339° (NNW) 2,531 10.2 6.6°
Maximum altitude 06:22:18 19° 23° (NNE) 1,984 10.4 7.2°
Drops below altitude 10° 06:26:22 10° 67° (ENE) 2,551 13.2 7.9°
Sets 06:29:41 0° 85° (E) 3,504 12.9 8.4°
